Lake Hood, AK

11:50 AM AKDT on May 29, 2017 (GMT -0800)
Lake Hood

Weather History for PALH - October, 2012

Change the Weather History Date:

Sunday, October 7, 2012

  Actual Average Record
Temperature  
Mean Temperature 48 °F -  
Max Temperature 50 °F 43 °F 55 °F (2006)
Min Temperature 46 °F 32 °F 24 °F (1996)
Degree Days  
Heating Degree Days 17    
Moisture  
Dew Point 44 °F    
Average Humidity 87    
Maximum Humidity 90    
Minimum Humidity 86    
Precipitation  
Precipitation 0.01 in - - ()
Sea Level Pressure  
Sea Level Pressure 30.28 in    
Wind  
Wind Speed 3 mph (NNE)    
Max Wind Speed 7 mph    
Max Gust Speed -    
Visibility 6 miles    
Events Rain    
Averages and records for this station are not official NWS values.
T = Trace of Precipitation, MM = Missing Value Source: NWS Daily Summary

Daily Weather History Graph

Daily Weather History Graph

Search for Another Location

Airport or City:

Trip Planner

Search our weather history database for the weather conditions in past years. The results will help you decide how hot, cold, wet, or windy it might be!

Date:

Astronomy

Oct. 07, 2012 Rise Set
Actual Time 8:23 AM AKDT 7:10 PM AKDT
Civil Twilight 7:40 AM AKDT 7:53 PM AKDT
Nautical Twilight 6:49 AM AKDT 8:43 PM AKDT
Astronomical Twilight 5:58 AM AKDT 9:34 PM AKDT
Moon 11:24 PM AKDT (10/7) 4:18 PM AKDT (10/7)
Length of Visible Light 12h 13m
Length of Day
10h 47m
Waning Gibbous, 55% of the Moon is Illuminated
Oct 7
Waning Gibbous
Oct 7
Last Quarter
Oct 15
New
Oct 21
First Quarter
Oct 29
Full

Hourly Weather History & Observations

Time (AKDT) Temp. Windchill Dew Point Humidity Pressure Visibility Wind Dir Wind Speed Gust Speed Precip Events Conditions
12:53 AM 46.9 °F - 43.0 °F 86% 30.31 in 10.0 mi Calm Calm - N/A   Scattered Clouds
1:53 AM 46.9 °F - 44.1 °F 90% 30.32 in 10.0 mi Calm Calm - N/A   Overcast
2:53 AM 46.9 °F - 43.0 °F 86% 30.32 in 10.0 mi North 3.5 mph - 0.00 in   Overcast
3:53 AM 46.9 °F - 43.0 °F 86% 30.31 in 7.0 mi NE 3.5 mph - 0.00 in Rain Light Rain
4:53 AM 46.0 °F - 43.0 °F 89% 30.31 in 6.0 mi Calm Calm - 0.00 in Rain Light Rain
5:53 AM 46.0 °F 42.5 °F 42.1 °F 86% 30.30 in 6.0 mi NNE 6.9 mph - 0.00 in Rain Light Rain
6:04 AM 46.4 °F 42.9 °F 42.8 °F 87% 30.29 in 6.0 mi NE 6.9 mph - 0.00 in Rain Light Rain
6:17 AM 46.4 °F 43.5 °F 42.8 °F 87% 30.29 in 6.0 mi NNE 5.8 mph - 0.00 in Rain Light Rain
6:53 AM 46.0 °F 43.1 °F 42.1 °F 86% 30.28 in 7.0 mi NNE 5.8 mph - 0.00 in Rain Light Rain
7:08 AM 46.4 °F 42.9 °F 42.8 °F 87% 30.27 in 8.0 mi NNE 6.9 mph - 0.00 in Rain Light Rain
7:53 AM 46.0 °F 44.8 °F 42.1 °F 86% 30.27 in 9.0 mi North 3.5 mph - 0.00 in Rain Light Rain
8:53 AM 46.0 °F - 43.0 °F 89% 30.28 in 5.0 mi Calm Calm - 0.00 in Rain Light Rain
9:53 AM 46.9 °F - 43.0 °F 86% 30.28 in 4.0 mi NNW 3.5 mph - 0.00 in Rain Light Rain
10:03 AM 46.4 °F 43.5 °F 42.8 °F 87% 30.28 in 5.0 mi NNW 5.8 mph - 0.00 in Rain Light Rain
10:53 AM 46.9 °F - 44.1 °F 90% 30.29 in 6.0 mi Calm Calm - 0.00 in Rain Light Rain
11:53 AM 46.9 °F - 44.1 °F 90% 30.29 in 5.0 mi Calm Calm - 0.00 in Rain Light Rain
12:01 PM 48.2 °F - 44.6 °F 87% 30.29 in 6.0 mi Calm Calm - 0.00 in Rain Light Rain
12:53 PM 48.0 °F - 44.1 °F 86% 30.30 in 6.0 mi North 3.5 mph - 0.01 in Rain Rain
1:30 PM 48.2 °F - 44.6 °F 87% 30.29 in 10.0 mi North 4.6 mph - 0.00 in Rain Light Rain
1:53 PM 48.9 °F - 45.0 °F 86% 30.29 in 10.0 mi North 3.5 mph - 0.00 in Rain Light Rain
2:06 PM 48.2 °F - 44.6 °F 87% 30.29 in 10.0 mi North 3.5 mph - 0.00 in Rain Light Rain
2:44 PM 48.2 °F - 44.6 °F 87% 30.29 in 10.0 mi NNE 3.5 mph - 0.00 in Rain Light Rain
2:53 PM 50.0 °F - 46.0 °F 86% 30.29 in 9.0 mi NE 3.5 mph - 0.00 in Rain Light Rain
3:11 PM 48.2 °F - 44.6 °F 87% 30.29 in 10.0 mi NE 3.5 mph - 0.00 in Rain Light Rain
3:20 PM 48.2 °F - 44.6 °F 87% 30.29 in 9.0 mi NE 4.6 mph - 0.00 in Rain Light Rain
3:53 PM 48.9 °F - 46.0 °F 90% 30.29 in 8.0 mi NNE 4.6 mph - 0.00 in Rain Light Rain
4:53 PM 48.9 °F - 46.0 °F 90% 30.27 in 10.0 mi ENE 3.5 mph - 0.00 in Rain Light Rain
5:53 PM 48.9 °F - 45.0 °F 86% 30.27 in 10.0 mi NNE 4.6 mph - 0.00 in   Overcast
6:53 PM 48.9 °F - 45.0 °F 86% 30.27 in 10.0 mi NE 3.5 mph - N/A   Overcast
7:53 PM 48.9 °F - 45.0 °F 86% 30.27 in 10.0 mi NE 3.5 mph - N/A   Overcast
8:53 PM 48.9 °F - 45.0 °F 86% 30.27 in 10.0 mi NW 5.8 mph - N/A   Overcast
9:26 PM 48.2 °F - 44.6 °F 87% 30.27 in 10.0 mi NNW 5.8 mph - N/A   Overcast
9:34 PM 48.2 °F - 44.6 °F 87% 30.26 in 10.0 mi North 5.8 mph - N/A   Overcast
9:49 PM 48.2 °F - 44.6 °F 87% 30.26 in 1.8 mi North 3.5 mph - N/A   Overcast
9:50 PM 48.0 °F - 45.0 °F 89% 30.26 in 1.8 mi NNE 4.6 mph - N/A   Overcast
10:07 PM 48.2 °F - 44.6 °F 87% 30.26 in 0.8 mi NNE 3.5 mph - N/A   Mist
10:26 PM 48.2 °F - 44.6 °F 87% 30.26 in 1.0 mi Calm Calm - N/A   Overcast
10:44 PM 48.2 °F - 44.6 °F 87% 30.26 in 2.5 mi NNW 3.5 mph - N/A   Overcast
10:50 PM 48.2 °F - 44.6 °F 87% 30.26 in 1.0 mi Calm Calm - N/A   Overcast
10:53 PM 48.0 °F - 45.0 °F 89% 30.26 in 0.8 mi Calm Calm - N/A   Overcast
11:15 PM 48.2 °F - 44.6 °F 87% 30.26 in 0.8 mi Calm Calm - N/A   Overcast
11:44 PM 48.2 °F - 44.6 °F 87% 30.26 in 1.0 mi NNE 3.5 mph - N/A   Overcast
11:53 PM 48.0 °F - 45.0 °F 89% 30.26 in 2.0 mi NE 4.6 mph - N/A   Overcast